Voltar ao catálogo

DELTA 1 R/B

AtivoLEO
NORAD 13778·ROCKET BODY·🇺🇸 United States

Lançado Jan 26, 1983 de Vandenberg Space Force Base

Loading…

Próximas Passagens (próximas 24 horas)

TLE

AtualizadoSource: Space-Track

Época: Sep 14, 2026, 14:20 UTC

1 13778U 83004B   26257.59778495  .00000070  00000-0  70696-4 0  9996
2 13778 100.0543 320.5907 0021286  40.2126 320.0611 14.09727070242324

Acompanhe DELTA 1 R/B em tempo real com AllMySat

Download on the App Store